• In Uzbekistan
  • List of Countries
  • For 7 days
  • Water Temperature
  • Satellite Maps
  • Weather Map
  • Weather Widgets
  • user-avatar
    Login

    Hourly Weather Sarikamis

    Today, 23 February, Friday

    Time Temperature Precipitation Wind Pressure Humidity
    00:00 -9°C° 0 mm 1 mps 576 mmHg 86%
    01:00 -9°C° 0 mm 1 mps 576 mmHg 86%
    02:00 -9°C° 0 mm 1 mps 576 mmHg 85%
    03:00 -9°C° 0 mm 1 mps 576 mmHg 85%
    04:00 -9°C° 0 mm 1 mps 576 mmHg 84%
    05:00 -10°C° 0 mm 1 mps 576 mmHg 84%
    06:00 -10°C° 0 mm 1 mps 575 mmHg 83%
    07:00 -9°C° 0 mm 1 mps 576 mmHg 82%
    08:00 -7°C° 0 mm 1 mps 576 mmHg 80%
    09:00 -6°C° 0 mm 1 mps 577 mmHg 80%
    10:00 -3°C° 0 mm 1 mps 577 mmHg 79%
    11:00 -2°C° 0 mm 1 mps 578 mmHg 77%
    12:00 -1°C° 0 mm 1 mps 578 mmHg 76%
    13:00 -1°C° 0 mm 1 mps 578 mmHg 76%
    14:00 0°C° 0 mm 1 mps 578 mmHg 76%
    15:00 -1°C° 0 mm 0 mps 578 mmHg 75%
    16:00 -3°C° 0 mm 0 mps 577 mmHg 76%
    17:00 -4°C° 0 mm 0 mps 576 mmHg 78%
    18:00 -6°C° 0 mm 0 mps 575 mmHg 80%
    19:00 -7°C° 0 mm 0 mps 575 mmHg 80%
    20:00 -8°C° 0 mm 0 mps 575 mmHg 80%
    21:00 -8°C° 0 mm 1 mps 575 mmHg 80%
    22:00 -8°C° 0 mm 1 mps 575 mmHg 79%
    23:00 -9°C° 0 mm 1 mps 575 mmHg 78%

    Tomorrow, 24 February, Saturday

    Time Temperature Precipitation Wind Pressure Humidity
    00:00 -9°C° 0 mm 0 mps 575 mmHg 78%
    01:00 -9°C° 0 mm 1 mps 575 mmHg 77%
    02:00 -10°C° 0 mm 1 mps 575 mmHg 77%
    03:00 -10°C° 0 mm 1 mps 575 mmHg 77%
    04:00 -10°C° 0 mm 1 mps 575 mmHg 77%
    05:00 -10°C° 0 mm 1 mps 575 mmHg 77%
    06:00 -10°C° 0 mm 1 mps 574 mmHg 77%
    07:00 -9°C° 0 mm 1 mps 575 mmHg 76%
    08:00 -8°C° 0 mm 1 mps 576 mmHg 76%
    09:00 -7°C° 0 mm 1 mps 576 mmHg 75%
    10:00 -4°C° 0 mm 1 mps 577 mmHg 75%
    11:00 -3°C° 0 mm 1 mps 577 mmHg 74%
    12:00 -1°C° 0 mm 1 mps 577 mmHg 74%
    13:00 -1°C° 0 mm 1 mps 577 mmHg 74%
    14:00 -1°C° 0 mm 1 mps 577 mmHg 75%
    15:00 0°C° 0 mm 1 mps 577 mmHg 75%
    16:00 -2°C° 0 mm 1 mps 576 mmHg 78%
    17:00 -3°C° 0 mm 1 mps 575 mmHg 81%
    18:00 -6°C° 0 mm 1 mps 575 mmHg 83%
    19:00 -7°C° 0 mm 1 mps 575 mmHg 84%
    20:00 -7°C° 0 mm 1 mps 575 mmHg 85%
    21:00 -8°C° 0 mm 1 mps 575 mmHg 87%
    22:00 -8°C° 0 mm 1 mps 575 mmHg 86%
    23:00 -8°C° 0 mm 1 mps 575 mmHg 86%

    Day after tomorrow, 25 February, Sunday

    Time Temperature Precipitation Wind Pressure Humidity
    00:00 -9°C° 0 mm 1 mps 575 mmHg 86%
    01:00 -9°C° 0 mm 1 mps 575 mmHg 87%
    02:00 -9°C° 0 mm 1 mps 575 mmHg 87%
    03:00 -9°C° 0 mm 1 mps 574 mmHg 87%
    04:00 -9°C° 0 mm 1 mps 574 mmHg 87%
    05:00 -9°C° 0 mm 1 mps 574 mmHg 87%
    06:00 -9°C° 0 mm 1 mps 574 mmHg 88%
    07:00 -9°C° 0 mm 2 mps 575 mmHg 87%
    08:00 -8°C° 0 mm 2 mps 575 mmHg 86%
    09:00 -7°C° 0 mm 2 mps 576 mmHg 86%
    10:00 -5°C° 0 mm 2 mps 576 mmHg 84%
    11:00 -4°C° 0 mm 2 mps 576 mmHg 82%
    12:00 -2°C° 0 mm 3 mps 576 mmHg 80%
    13:00 -2°C° 0 mm 3 mps 576 mmHg 80%
    14:00 -2°C° 0 mm 3 mps 576 mmHg 79%
    15:00 -1°C° 0 mm 3 mps 575 mmHg 78%
    16:00 -3°C° 0 mm 2 mps 575 mmHg 81%
    17:00 -4°C° 0 mm 2 mps 574 mmHg 83%
    18:00 -5°C° 0 mm 2 mps 574 mmHg 86%
    19:00 -5°C° 0.1 mm 2 mps 574 mmHg 87%
    20:00 -3°C° 0.1 mm 1 mps 574 mmHg 88%
    21:00 -3°C° 0.1 mm 1 mps 574 mmHg 89%
    22:00 -3°C° 0.2 mm 1 mps 574 mmHg 90%
    23:00 -3°C° 0.2 mm 1 mps 575 mmHg 90%

    26 February, Monday

    Time Temperature Precipitation Wind Pressure Humidity
    00:00 -3°C° 0.2 mm 1 mps 575 mmHg 91%
    01:00 -3°C° 0.4 mm 1 mps 575 mmHg 91%
    02:00 -3°C° 0.4 mm 1 mps 575 mmHg 92%
    03:00 -3°C° 0.4 mm 1 mps 574 mmHg 93%
    04:00 -3°C° 0.2 mm 1 mps 575 mmHg 93%
    05:00 -3°C° 0.2 mm 1 mps 575 mmHg 93%
    06:00 -4°C° 0.2 mm 1 mps 575 mmHg 93%
    07:00 -3°C° 0.4 mm 1 mps 575 mmHg 92%
    08:00 -3°C° 0.4 mm 1 mps 576 mmHg 92%
    09:00 -2°C° 0.4 mm 1 mps 576 mmHg 91%
    10:00 -2°C° 0.3 mm 1 mps 576 mmHg 90%
    11:00 -1°C° 0.3 mm 1 mps 577 mmHg 89%
    12:00 -1°C° 0.3 mm 1 mps 577 mmHg 88%
    13:00 0°C° 0.1 mm 1 mps 577 mmHg 86%
    14:00 0°C° 0.1 mm 1 mps 577 mmHg 84%
    15:00 0°C° 0.1 mm 1 mps 576 mmHg 82%
    16:00 -1°C° 0 mm 1 mps 576 mmHg 83%
    17:00 -3°C° 0 mm 0 mps 576 mmHg 83%
    18:00 -5°C° 0 mm 0 mps 575 mmHg 84%
    19:00 -5°C° 0 mm 0 mps 575 mmHg 85%
    20:00 -6°C° 0 mm 1 mps 575 mmHg 86%
    21:00 -6°C° 0 mm 1 mps 576 mmHg 87%
    22:00 -6°C° 0 mm 1 mps 575 mmHg 87%
    23:00 -7°C° 0 mm 1 mps 575 mmHg 87%

    27 February, Tuesday

    Time Temperature Precipitation Wind Pressure Humidity
    00:00 -7°C° 0 mm 1 mps 575 mmHg 88%
    01:00 -7°C° 0 mm 1 mps 575 mmHg 88%
    02:00 -7°C° 0 mm 1 mps 575 mmHg 88%
    03:00 -7°C° 0 mm 1 mps 575 mmHg 88%
    04:00 -6°C° 0 mm 1 mps 575 mmHg 88%
    05:00 -6°C° 0 mm 1 mps 575 mmHg 88%
    06:00 -6°C° 0 mm 1 mps 575 mmHg 88%
    07:00 -6°C° 0 mm 1 mps 576 mmHg 87%
    08:00 -6°C° 0 mm 2 mps 576 mmHg 86%
    09:00 -5°C° 0 mm 2 mps 577 mmHg 85%
    10:00 -4°C° 0 mm 2 mps 577 mmHg 85%
    11:00 -3°C° 0 mm 2 mps 577 mmHg 85%
    12:00 -2°C° 0 mm 2 mps 577 mmHg 84%
    13:00 -1°C° 0.1 mm 2 mps 577 mmHg 84%
    14:00 -1°C° 0.1 mm 2 mps 577 mmHg 84%
    15:00 -1°C° 0.1 mm 2 mps 577 mmHg 84%
    16:00 -2°C° 0.2 mm 2 mps 577 mmHg 85%
    17:00 -2°C° 0.2 mm 2 mps 577 mmHg 86%
    18:00 -1°C° 0.2 mm 1 mps 577 mmHg 87%
    19:00 -2°C° 0 mm 1 mps 578 mmHg 88%
    20:00 -2°C° 0 mm 1 mps 578 mmHg 88%
    21:00 -3°C° 0 mm 1 mps 578 mmHg 89%
    22:00 -3°C° 0 mm 1 mps 578 mmHg 89%
    23:00 -4°C° 0 mm 1 mps 578 mmHg 89%

    28 February, Wednesday

    Time Temperature Precipitation Wind Pressure Humidity
    00:00 -4°C° 0 mm 1 mps 578 mmHg 89%
    01:00 -4°C° 0 mm 1 mps 577 mmHg 89%
    02:00 -6°C° 0 mm 1 mps 577 mmHg 89%
    03:00 -6°C° 0 mm 1 mps 577 mmHg 89%
    04:00 -6°C° 0 mm 1 mps 578 mmHg 88%
    05:00 -6°C° 0 mm 1 mps 578 mmHg 88%
    06:00 -6°C° 0 mm 1 mps 578 mmHg 88%
    07:00 -5°C° 0 mm 0 mps 579 mmHg 86%
    08:00 -4°C° 0 mm 0 mps 579 mmHg 84%
    09:00 -3°C° 0 mm 0 mps 580 mmHg 82%
    10:00 -2°C° 0 mm 0 mps 580 mmHg 82%
    11:00 -1°C° 0 mm 0 mps 580 mmHg 82%
    12:00 0°C° 0 mm 0 mps 581 mmHg 82%
    13:00 0°C° 0 mm 0 mps 581 mmHg 82%
    14:00 0°C° 0 mm 0 mps 581 mmHg 82%
    15:00 +1°C° 0 mm 0 mps 580 mmHg 82%
    16:00 -1°C° 0 mm 0 mps 580 mmHg 82%
    17:00 -2°C° 0 mm 0 mps 579 mmHg 82%
    18:00 -3°C° 0 mm 0 mps 579 mmHg 82%
    19:00 -4°C° 0 mm 0 mps 579 mmHg 83%
    20:00 -4°C° 0 mm 0 mps 579 mmHg 83%
    21:00 -4°C° 0 mm 1 mps 579 mmHg 84%
    22:00 -4°C° 0 mm 1 mps 579 mmHg 84%
    23:00 -6°C° 0 mm 1 mps 579 mmHg 83%
    Show more